Regional Weather Roundup
Issued by NWS

Home | Current Version | Previous Version | Text Only | Print | Product List | Glossary Off
Versions: 1 2 3 4 5 6 7 8 9 10 11 12 13 14 15 16 17 18 19 20 21 22 23 24 25 26 27 28 29 30 31 32 33 34 35 36 37 38 39 40 41 42 43 44 45 46 47 48 49 50

453
ASUS44 KMEG 230500
RWRTN
TENNESSEE HOURLY STATE WEATHER ROUNDUP
NATIONAL WEATHER SERVICE MEMPHIS TN
1100 PM CST WED FEB 22 2017

TNZ002-004-019-021-049-052-054-088>092-230600-
WEST TENNESSEE

CITY           SKY/WX    TMP DP  RH WIND       PRES   REMARKS
MEMPHIS INTL   PTCLDY    62  56  80 S8        29.83R
NWS MEMPHIS      N/A     62 N/A N/A MISG        N/A
JACKSON        CLEAR     61  57  87 S5        29.83R
UNION CITY     CLEAR     59  59 100 S9        29.79F
PARIS          CLEAR     57  54  88 S6        29.82S
$$

TNZ008-025-027-028-033-062-065-066-230600-
NORTH MIDDLE TENNESSEE

CITY           SKY/WX    TMP DP  RH WIND       PRES   REMARKS
NASHVILLE      CLEAR     56  54  93 S5        29.85S
CLARKSVILLE    CLEAR     56  52  86 CALM      29.82F
SMYRNA         FOG       52  51  97 CALM      29.86S VSB 3/4
CROSSVILLE     FOG       53  52  96 SE3       29.89F VSB 1/4
$$

TNZ061-075-076-078-094-096-097-230600-
SOUTH MIDDLE TENNESSEE

CITY           SKY/WX    TMP DP  RH WIND       PRES   REMARKS
TULLAHOMA        N/A     52  50  93 CALM      29.87S VSB 1
WINCHESTER     CLEAR     52  52 100 CALM      29.87S
MCMINNVILLE    MOCLDY    50  50 100 CALM      29.86F VSB 1/2
COLUMBIA         N/A    N/A N/A N/A CALM      29.84S VSB 3/4
SHELBYVILLE    CLEAR     57  57 100 SE5       29.87R
$$

TNZ017-018-042-046-047-230600-
NORTHEAST TENNESSEE

CITY           SKY/WX    TMP DP  RH WIND       PRES   REMARKS
TRI CITIES     FOG       47  47 100 CALM      29.92S VSB 1/4
$$

TNZ012-013-036-069-073-074-230600-
CENTRAL EAST TENNESSEE

CITY           SKY/WX    TMP DP  RH WIND       PRES   REMARKS
KNOXVILLE      FOG       53  51  93 NE3       29.89S VSB 3/4
OAK RIDGE      FOG       52  50  93 CALM      29.91S VSB 1/4
GATLINBURG     CLOUDY    54  54 100 CALM      29.90S VSB 1/4
$$

TNZ083-085-099-230600-
SOUTHEAST TENNESSEE

CITY           SKY/WX    TMP DP  RH WIND       PRES   REMARKS
CHATTANOOGA    MOCLDY    56  54  93 CALM      29.90S
$$

SKY/WX REPORTED AS FAIR MEANS FEW OR NO CLOUDS BELOW
12 THOUSAND FEET.





USA.gov is the U.S. government's official web portal to all federal, state and local government web resources and services.